Location: McNierney
(34.1937°N, 106.9061°W)
Time: 17:23:05
(UTC+00:00)

ATLAS 2AS CENTAUR R/B - Visible Passes

Search period start: 14 March 2026 00:00
Search period end: 24 March 2026 00:00
Orbit: 1051 x 1160 km, 63.7° (Epoch: 14 March)

Date Brightness Start Highest point End Pass type
(mag) Time Alt. Az. Time Alt. Az. Time Alt. Az.
14 Mar 5.4 02:22:40 10° WNW 02:26:13 15° WSW 02:29:46 10° SW visible
15 Mar 5.0 01:36:03 10° NW 01:41:32 27° WSW 01:47:05 10° SSW visible
16 Mar 5.8 12:51:24 10° SE 12:54:25 13° ESE 12:57:25 10° E visible
19 Mar 5.4 12:25:14 10° SSE 12:29:53 19° ESE 12:34:27 10° ENE visible
22 Mar 4.9 11:59:45 10° SSE 12:05:23 26° ESE 12:10:54 10° ENE visible
23 Mar 5.3 11:17:14 10° SE 11:20:41 14° ESE 11:24:06 10° ENE visible
